TimeMST,TemperatureF,Dew PointF,Humidity,Sea Level PressureIn,VisibilityMPH,Wind Direction,Wind SpeedMPH,Gust SpeedMPH,PrecipitationIn,Events,Conditions,WindDirDegrees,DateUTC
12:53 AM,-9.9,-15.0,78,30.33,10.0,NNW,5.8,-,N/A,,Clear,330,2012-12-31 07:53:00
1:53 AM,-4.0,-9.0,79,30.31,10.0,Calm,Calm,-,N/A,,Clear,0,2012-12-31 08:53:00
2:53 AM,-8.0,-13.0,79,30.32,10.0,SSW,4.6,-,N/A,,Clear,200,2012-12-31 09:53:00
3:53 AM,-8.0,-13.0,79,30.32,8.0,South,3.5,-,N/A,,Clear,180,2012-12-31 10:53:00
4:27 AM,-9.4,-16.6,71,29.97,3.0,Calm,Calm,-,N/A,,Haze,0,2012-12-31 11:27:00
4:48 AM,-9.4,-13.0,84,29.96,1.8,Calm,Calm,-,N/A,,Clear,0,2012-12-31 11:48:00
4:53 AM,-8.0,-11.0,86,30.31,0.8,Calm,Calm,-,N/A,,Clear,0,2012-12-31 11:53:00
5:10 AM,-9.4,-16.6,71,29.96,2.5,WNW,4.6,-,N/A,,Haze,300,2012-12-31 12:10:00
5:17 AM,-11.2,-16.6,77,29.96,10.0,WNW,5.8,-,N/A,,Clear,300,2012-12-31 12:17:00
5:53 AM,-9.0,-14.1,79,30.33,10.0,WNW,4.6,-,N/A,,Clear,300,2012-12-31 12:53:00
6:53 AM,-8.0,-14.1,75,30.33,10.0,SW,4.6,-,N/A,,Clear,220,2012-12-31 13:53:00
7:53 AM,-9.0,-14.1,79,30.35,10.0,WSW,6.9,-,N/A,,Clear,250,2012-12-31 14:53:00
8:40 AM,-5.8,-11.2,77,29.99,10.0,Calm,Calm,-,N/A,,Partly Cloudy,0,2012-12-31 15:40:00
8:48 AM,-5.8,-9.4,84,29.99,1.0,SW,3.5,-,N/A,,Haze,230,2012-12-31 15:48:00
8:53 AM,-4.0,-9.0,79,30.36,0.8,Calm,Calm,-,N/A,,Haze,0,2012-12-31 15:53:00
8:55 AM,-2.2,-9.4,71,30.00,1.2,Calm,Calm,-,N/A,,Haze,0,2012-12-31 15:55:00
8:58 AM,-2.2,-7.6,78,30.00,3.0,Calm,Calm,-,N/A,,Haze,0,2012-12-31 15:58:00
9:53 AM,-5.1,-9.9,80,30.38,10.0,Calm,Calm,-,N/A,,Clear,0,2012-12-31 16:53:00
10:14 AM,-5.8,-9.4,84,30.01,2.0,Calm,Calm,-,N/A,,Partly Cloudy,0,2012-12-31 17:14:00
10:16 AM,-5.8,-9.4,84,30.01,1.0,Calm,Calm,-,N/A,,Mist,0,2012-12-31 17:16:00
10:23 AM,-4.0,-9.4,78,30.02,0.5,Calm,Calm,-,N/A,,Haze,0,2012-12-31 17:23:00
10:36 AM,-2.2,-7.6,78,30.02,1.8,Calm,Calm,-,N/A,,Overcast,0,2012-12-31 17:36:00
10:42 AM,-2.2,-7.6,78,30.02,3.0,Calm,Calm,-,N/A,,Haze,0,2012-12-31 17:42:00
10:53 AM,-2.9,-9.0,75,30.37,10.0,Calm,Calm,-,N/A,,Scattered Clouds,0,2012-12-31 17:53:00
11:53 AM,-0.0,-2.0,91,30.34,5.0,Calm,Calm,-,N/A,,Clear,0,2012-12-31 18:53:00
12:53 PM,-0.0,-6.0,76,30.32,9.0,East,3.5,-,N/A,,Clear,100,2012-12-31 19:53:00
1:53 PM,1.0,-6.0,72,30.27,10.0,ENE,5.8,-,N/A,,Clear,60,2012-12-31 20:53:00
2:53 PM,1.0,-6.0,72,30.30,10.0,NE,4.6,-,N/A,,Clear,50,2012-12-31 21:53:00
3:53 PM,1.0,-7.1,69,30.32,10.0,Calm,Calm,-,N/A,,Clear,0,2012-12-31 22:53:00
4:53 PM,-4.0,-9.9,76,30.35,10.0,NNW,5.8,-,N/A,,Clear,340,2012-12-31 23:53:00
5:53 PM,-2.9,-9.0,75,30.35,10.0,SSW,4.6,-,N/A,,Clear,210,2013-01-01 00:53:00
6:53 PM,-6.0,-11.0,79,30.38,10.0,WNW,8.1,-,N/A,,Clear,300,2013-01-01 01:53:00
7:53 PM,-4.0,-9.4,78,29.99,10.0,WNW,4.6,-,N/A,,Clear,300,2013-01-01 02:53:00
8:53 PM,-0.0,-6.0,76,30.35,10.0,WNW,3.5,-,N/A,,Clear,290,2013-01-01 03:53:00
9:53 PM,-2.9,-9.0,75,30.38,9.0,SW,9.2,-,N/A,,Clear,230,2013-01-01 04:53:00
10:53 PM,-2.9,-8.0,79,30.39,10.0,SW,3.5,-,N/A,,Overcast,220,2013-01-01 05:53:00
11:53 PM,-0.9,-7.1,75,30.38,10.0,NW,3.5,-,N/A,,Overcast,320,2013-01-01 06:53:00